Regional Weather Roundup
Issued by NWS Spokane, WA

Home | Current Version | Previous Version | Text Only | Print | Product List | Glossary On
Versions: 1 2 3 4 5 6 7 8 9 10 11 12 13 14 15 16 17 18 19 20 21 22 23 24 25 26 27 28 29 30 31 32 33 34 35 36 37 38 39 40 41 42 43 44 45 46 47 48 49 50
000
NZUS01 KOTX 042110
RWROTX
EASTERN WASHINGTON/NORTHERN IDAHO ROUNDUP
NATIONAL WEATHER SERVICE, SPOKANE WA
200 PM PDT FRI SEP 04 2015

Note: "fair" indicated few or no clouds below 12,000 feet with no
significant weather and/or obstructions to visibility.

...NORTHEAST WASHINGTON AND NORTHERN IDAHO PANHANDLE...

CITY           SKY/WX    TMP DP  RH WIND       PRES   REMARKS
SPOKANE INTL   FAIR      66  31  27 NE8       29.88F
SPOKANE DOWNTO PTSUNNY   67  32  27 VRB3      29.88F
COEUR D ALENE  FAIR      66  37  34 N9        29.87F
DEER PARK      HAZE      68  30  24 MISG      29.89F VSB 1/2
SANDPOINT      FAIR      64  36  34 N10G18    29.91F
BONNERS FERRY  CLOUDY    59  41  51 N13       29.96F

...SOUTHEAST WASHINGTON AND SOUTHERN IDAHO PANHANDLE...

CITY           SKY/WX    TMP DP  RH WIND       PRES   REMARKS
WALLA WALLA    FAIR      68  36  30 S5        29.85F
PULLMAN/MOSCOW FAIR      67  33  28 CALM      29.87F
LEWISTON       FAIR      70  41  34 VRB3      29.83F
LOWELL           N/A     63  48  58 S10G18    29.83F

...COLUMBIA BASIN...

CITY           SKY/WX    TMP DP  RH WIND       PRES   REMARKS
EPHRATA        PTSUNNY   70  33  25 CALM      29.87F
MOSES LAKE     CLOUDY    68  35  29 S3        29.88F
TRI CITIES     FAIR      72  41  32 N9        29.86F
HERMISTON      FAIR      69  36  29 NE5       29.86F
PENDLETON      FAIR      63  36  36 W7        29.86F

...EAST SLOPES CASCADES...

CITY           SKY/WX    TMP DP  RH WIND       PRES   REMARKS
THE DALLES     FAIR      72  33  24 NW9       29.86F
YAKIMA         PTSUNNY   67  35  30 W3        29.90F
ELLENSBURG     CLOUDY    66  33  29 NW6       29.90F
WENATCHEE      FAIR      70  32  24 CALM      29.88F
OMAK           FAIR      71  34  25 N13G21    29.90F

...SOUTHERN BRITISH COLUMBIA...

CITY           SKY/WX    TMP DP  RH WIND       PRES   REMARKS
PENTICTON      PTSUNNY   66  43  42 N10       29.96F
CASTLEGAR      MOSUNNY   63  43  48 N10       29.93F
CRANBROOK      PTSUNNY   52  39  62 N10G18    30.03F

...WESTERN MONTANA...

CITY           SKY/WX    TMP DP  RH WIND       PRES   REMARKS
MISSOULA       PTSUNNY   61  44  53 S9G18     29.93F

...NEIGHBORING CITIES...

CITY           SKY/WX    TMP DP  RH WIND       PRES   REMARKS
SEATTLE        PTSUNNY   60  47  61 N9        30.00F
CALGARY        LGT RAIN  43  39  87 N13G22    30.13S



USA.gov is the U.S. government's official web portal to all federal, state and local government web resources and services.